Tracking 19709 objects as of 19-Jun-2019
HD Live streaming from Space Station
objects crossing your sky now

FLOCK 2K 05

Track FLOCK 2K 05 now!
10-day predictions
FLOCK 2K 05 is classified as:


NORAD ID: 42864
Int'l Code: 2017-042AR
Perigee: 446.7 km
Apogee: 457.7 km
Inclination: 96.9 °
Period: 93.5 minutes
Semi major axis: 6823 km
RCS: Unknown
Launch date: July 14, 2017
Source: United States (US)
Launch site: TYURATAM MISSILE AND SPACE COMPLEX (TTMTR)
aabbcc
Your satellite tracking list
Your tracking list is empty




NASA's NSSDC Master Catalog

Two Line Element Set (TLE):
1 42864U 17042AR  19169.85707912 +.00003249 +00000-0 +82351-4 0  9994
2 42864 096.9400 052.8896 0008032 211.2163 148.8608 15.40357197108018
Source of the keplerian elements: AFSPC